FENGYUN 1C DEB

Satellite information

Favourite Embed

Satellite Type and Status

DEBRISIN ORBIT

Key statistics

Satellite FENGYUN 1C DEB at a glance.

Uptime

9715

Days in orbit

Revolutions

≈ 14.5

Per day

Orbit

SSO

Sun Synchronous Orbit

Inclination

98.8

Latest

Satellite identification and parameters

Extended collection of information and parameters for FENGYUN 1C DEB.

Object identification

Identified? True

Debris? True

Object name: FENGYUN 1C DEB

International designator: 1999-025ABF

Object number (NORAD): 30344

Object ID (CCSDS): 30344

Country: PEOPLES REPUBLIC OF CHINA (PRC)

Current information (Y/N): Y

RCS size: SMALL

Orbital parameters

Period: 99.189 minutes

Inclination: 98.8194 deg

SMA: 7097.997 km

Apoapsis: 725.506 km

Periapsis: 714.218 km

RAAN: 69.3037 deg

Eccentricy: 0.00079516

Argument of periapsis: 119.8531 deg

Mean anomaly: 260.7311 deg

Mean motion: 14.51773995 rev/day

Mean motion (dot): 0.0001475 rev/day2

B* drag term: 0.0036718978 1/REarth

Two-line elements (TLE)

Creation date: Dec. 13, 2025, 5:47 p.m.

Reference frame: TEME

Reference center: EARTH

Epoch: Dec. 13, 2025, 5:19 a.m. UTC

TLE line 0: 0 FENGYUN 1C DEB

TLE line 1: 1 30344U 99025ABF 25347.22220009 .00014750 00000-0 36719-2 0 9992

TLE line 2: 2 30344 98.8194 69.3037 0007952 119.8531 260.7311 14.51773995980844

Live tracking on map

Real-time ground track for satellite FENGYUN 1C DEB.

In-orbit conjunctions

A list of the most updated potential collisions computed for object FENGYUN 1C DEB.

Target Orbit TCA Probability of collision Miss distance Type
PEGASUS DEB LEO 2025-12-16 13:34:43 0.00022353 32.0 (m) DEBRIS
COSMOS 2251 DEB LEO 2024-09-15 05:34:33 0.0001119661 99.0 (m) DEBRIS

Associated space launch

Chinese polar orbiting meteorological satellite

FENGYUN 1C DEB was lifted into orbit during the mission ‘Long March 4B | Feng Yun 1C’, on board a Long March 4B space rocket.

The launch took place on May 10, 1999, 1:33 a.m. from Launch Complex 7.

For more information about the launch, click the button.

Launch to space Long March 4B | Feng Yun 1C
Long March 4B | Feng Yun 1C

Agency: N/A

Status: Launch Successful

Launch date: May 10, 1999, 1:33 a.m. UTC

Rocket: Long March 4B

Launch pad: Launch Complex 7

Location: Taiyuan Satellite Launch Center, People's Republic of China

...

Latest news about this satellite

There are no fresh news available about this satellite. Check back as we update our databases every day.


Newsletter sign-up

Weekly statistics, charts and insights to help you stay on top of the space industry.